Cloud_Cover
0 0 13 50 1 9 0 0 0 0 0 2 5 5 5 5 5 5 2 5 5 5 18 25 36 13 38 30 2 1 17 76 5 49 82 100 72 99 100 100 100 100 100
0 0 0 12 0 0 0 0 0 0 0 0 5 5 6 5 5 5 15 49 6 14 22 84 92 100 100 80 5 3 2 11 50 9 65 100 82 26 5 10 97 82 100
0 0 0 0 0 0 0 0 0 0 0 0 5 5 5 23 14 5 6 89 90 95 100 100 74 100 79 10 20 70 70 67 39 16 5 62 19 19 5 10 5 5 5
0 0 0 0 0 0 0 0 0 0 0 0 2 5 2 60 69 54 42 100 100 100 100 100 100 100 100 99 100 100 100 100 80 100 72 46 8 5 7 75 33 98 9
0 0 0 0 0 0 0 0 0 0 0 14 2 0 2 65 94 100 86 100 100 100 100 100 100 100 100 100 100 100 100 100 100 100 80 78 80 100 99 82 14 6 5
0 0 0 3 0 0 0 0 0 0 0 100 100 69 3 51 12 53 100 99 100 100 100 100 100 100 100 100 100 100 100 100 100 100 99 100 100 100 100 100 100 99 100
29 0 0 0 0 0 0 0 0 0 0 1 82 100 100 100 31 5 48 100 100 100 100 100 100 100 100 100 100 100 100 100 100 100 100 100 100 100 100 96 96 99 100
0 0 4 0 0 0 0 0 0 0 0 0 47 100 100 100 100 35 5 23 69 100 100 100 100 100 100 99 98 100 100 100 100 100 100 100 100 100 100 100 100 37 78
4 4 27 4 0 0 0 0 0 0 0 2 87 100 100 100 98 100 11 3 60 100 100 100 100 100 100 100 98 97 78 100 100 100 100 100 100 100 100 100 100 100 70
98 2 26 25 6 12 10 13 11 25 70 99 82 100 100 100 94 100 100 49 100 100 100 100 100 100 100 100 100 92 100 100 100 100 94 100 100 100 100 100 100 93 73
100 87 33 29 54 99 100 100 100 98 100 96 100 100 100 100 100 100 97 100 100 100 83 100 100 100 100 100 100 100 100 100 100 100 98 93 100 100 100 100 100 100 99
100 90 29 65 100 100 100 100 98 89 78 100 98 100 100 99 100 99 100 100 100 100 80 22 100 100 100 100 100 100 100 100 100 100 100 100 100 100 100 100 100 100 100
100 99 46 100 100 100 100 100 100 100 100 81 94 100 100 100 98 100 100 100 100 100 100 100 98 98 100 100 100 100 100 100 100 100 100 100 100 100 94 91 100 100 100
100 100 100 98 100 100 100 100 100 99 31 5 66 100 100 42 73 100 100 100 100 100 100 100 100 100 100 100 100 100 100 100 100 100 100 100 100 100 100 100 100 100 100
100 100 100 100 100 100 100 100 74 12 8 6 95 100 100 100 44 78 98 100 100 100 100 100 100 100 100 100 100 100 100 100 100 100 100 100 100 100 100 100 100 100 100
100 100 100 100 100 100 99 100 100 46 67 100 99 88 100 100 100 57 89 55 100 100 100 100 100 100 100 100 96 98 94 100 100 100 100 98 100 100 100 100 99 100 100
100 100 100 100 100 100 100 100 44 52 100 76 99 100 100 100 100 95 67 100 94 50 93 100 100 100 100 100 100 100 100 97 100 100 100 100 100 100 100 100 100 100 98
100 100 100 100 100 100 100 100 58 55 20 30 81 100 98 100 95 88 100 100 100 100 88 100 100 100 100 100 100 100 100 100 76 100 100 100 100 100 99 100 100 100 100
100 100 100 100 100 100 100 100 99 68 40 5 70 7 1 8 95 41 69 91 100 100 100 100 100 100 100 100 100 100 100 76 68 40 27 99 100 96 99 100 100 100 100
100 100 100 100 100 100 100 100 100 80 82 50 10 16 43 29 11 6 30 9 19 55 100 99 100 100 100 100 100 100 52 7 0 0 1 0 40 62 95 88 100 100 100
100 100 100 100 100 100 100 100 100 100 100 84 95 89 95 48 82 100 8 52 5 4 17 65 100 100 100 99 100 100 100 100 50 0 0 0 0 0 0 2 99 97 100
100 100 100 100 100 100 88 100 100 100 100 100 100 100 100 94 100 98 39 2 0 0 1 24 88 100 0 90 21 99 35 62 76 53 2 0 0 0 0 0 0 0 23
100 100 100 100 100 100 100 100 100 100 84 100 64 96 100 100 100 100 48 12 1 0 2 15 100 100 100 47 99 58 88 77 14 81 23 6 0 0 0 0 0 0 0
100 100 100 100 100 100 100 82 99 64 68 52 76 100 100 93 44 6 5 24 5 9 5 4 77 100 100 100 26 19 100 14 73 99 100 16 5 4 0 0 0 0 0
100 100 100 100 100 100 100 100 78 100 93 33 100 82 100 50 85 100 99 95 28 8 5 1 0 37 100 100 100 99 50 100 6 98 100 100 47 5 5 0 0 0 0
100 100 100 100 100 100 100 100 100 100 100 100 98 94 100 100 100 100 100 100 100 25 5 15 0 5 99 99 100 100 80 79 100 90 100 100 91 45 49 30 11 3 0